,,PressureMeas_1m,,PRMeasQMR101_1,,RHStat155_1m_1,,SRMeasQMS101R_1m,,TAStat155_1m_1,,GenWind_1,,GenWind_1,
2017-09-04, 07:00:06,VALID,917.616,VALID,0.0,VALID,98.772,VALID,68.682,VALID,20.051,VALID,21.0,VALID,0.0,
2017-09-04, 07:01:06,VALID,917.611,VALID,0.0,VALID,98.764,VALID,71.862,VALID,20.091,VALID,21.0,VALID,0.0,
2017-09-04, 07:02:06,VALID,917.605,VALID,0.0,VALID,98.776,VALID,74.739,VALID,20.126,VALID,21.0,VALID,0.0,
2017-09-04, 07:03:06,VALID,917.594,VALID,0.0,VALID,98.777,VALID,77.372,VALID,20.147,VALID,21.0,VALID,0.0,
2017-09-04, 07:04:06,VALID,917.59,VALID,0.0,VALID,98.79,VALID,79.734,VALID,20.193,VALID,21.0,VALID,0.0,
2017-09-04, 07:05:06,VALID,917.597,VALID,0.0,VALID,98.804,VALID,82.22,VALID,20.219,VALID,21.0,VALID,0.035,
2017-09-04, 07:06:06,VALID,917.604,VALID,0.0,VALID,98.745,VALID,85.124,VALID,20.145,VALID,32.0,VALID,0.096,
2017-09-04, 07:07:06,VALID,917.613,VALID,0.0,VALID,98.729,VALID,87.873,VALID,20.132,VALID,44.0,VALID,0.196,
2017-09-04, 07:08:06,VALID,917.63,VALID,0.0,VALID,98.757,VALID,90.567,VALID,20.155,VALID,44.0,VALID,0.376,
2017-09-04, 07:09:06,VALID,917.631,VALID,0.0,VALID,98.748,VALID,93.331,VALID,20.194,VALID,44.0,VALID,0.445,
2017-09-04, 07:10:06,VALID,917.64,VALID,0.0,VALID,98.716,VALID,96.241,VALID,20.194,VALID,49.0,VALID,0.467,
2017-09-04, 07:11:06,VALID,917.636,VALID,0.0,VALID,98.745,VALID,99.48,VALID,20.237,VALID,56.0,VALID,0.437,
2017-09-04, 07:12:06,VALID,917.644,VALID,0.0,VALID,98.726,VALID,102.229,VALID,20.277,VALID,43.0,VALID,0.542,
2017-09-04, 07:13:06,VALID,917.643,VALID,0.0,VALID,98.699,VALID,103.338,VALID,20.298,VALID,39.0,VALID,0.38,
2017-09-04, 07:14:06,VALID,917.632,VALID,0.0,VALID,98.733,VALID,103.522,VALID,20.383,VALID,32.0,VALID,0.218,
2017-09-04, 07:15:06,VALID,917.63,VALID,0.0,VALID,98.728,VALID,104.232,VALID,20.438,VALID,38.0,VALID,0.333,
2017-09-04, 07:16:06,VALID,917.625,VALID,0.0,VALID,98.653,VALID,106.16,VALID,20.383,VALID,54.0,VALID,0.548,
2017-09-04, 07:17:06,VALID,917.642,VALID,0.0,VALID,98.562,VALID,109.733,VALID,20.34,VALID,56.0,VALID,0.589,
2017-09-04, 07:18:06,VALID,917.655,VALID,0.0,VALID,98.535,VALID,116.588,VALID,20.383,VALID,68.0,VALID,0.583,
2017-09-04, 07:19:06,VALID,917.67,VALID,0.0,VALID,98.474,VALID,122.632,VALID,20.413,VALID,70.0,VALID,0.737,
2017-09-04, 07:20:06,VALID,917.68,VALID,0.0,VALID,98.46,VALID,127.06,VALID,20.487,VALID,71.0,VALID,0.798,
2017-09-04, 07:21:06,VALID,917.678,VALID,0.0,VALID,98.368,VALID,130.805,VALID,20.462,VALID,79.0,VALID,0.721,
2017-09-04, 07:22:06,VALID,917.684,VALID,0.0,VALID,98.28,VALID,136.257,VALID,20.475,VALID,74.0,VALID,0.603,
2017-09-04, 07:23:06,VALID,917.689,VALID,0.0,VALID,98.147,VALID,143.131,VALID,20.452,VALID,75.0,VALID,0.44,
2017-09-04, 07:24:06,VALID,917.7,VALID,0.0,VALID,98.117,VALID,155.857,VALID,20.521,VALID,69.0,VALID,0.396,
2017-09-04, 07:25:06,VALID,917.703,VALID,0.0,VALID,98.231,VALID,189.171,VALID,20.662,VALID,52.0,VALID,0.303,
2017-09-04, 07:26:06,VALID,917.711,VALID,0.0,VALID,98.376,VALID,213.701,VALID,20.823,VALID,45.0,VALID,0.307,
2017-09-04, 07:27:06,VALID,917.724,VALID,0.0,VALID,98.252,VALID,225.665,VALID,20.799,VALID,63.0,VALID,0.364,
2017-09-04, 07:28:06,VALID,917.749,VALID,0.0,VALID,97.844,VALID,237.519,VALID,20.695,VALID,54.0,VALID,0.448,
2017-09-04, 07:29:06,VALID,917.779,VALID,0.0,VALID,97.576,VALID,247.431,VALID,20.745,VALID,45.0,VALID,0.391,
2017-09-04, 07:30:06,VALID,917.808,VALID,0.0,VALID,97.885,VALID,253.614,VALID,20.928,VALID,9.0,VALID,0.489,
2017-09-04, 07:31:06,VALID,917.828,VALID,0.0,VALID,97.951,VALID,258.028,VALID,21.079,VALID,54.0,VALID,0.343,
2017-09-04, 07:32:06,VALID,917.84,VALID,0.0,VALID,97.741,VALID,261.094,VALID,21.068,VALID,64.0,VALID,0.722,
2017-09-04, 07:33:06,VALID,917.864,VALID,0.0,VALID,96.351,VALID,271.189,VALID,20.879,VALID,63.0,VALID,0.348,
2017-09-04, 07:34:06,VALID,917.895,VALID,0.0,VALID,96.362,VALID,286.55,VALID,20.941,VALID,78.0,VALID,1.116,
2017-09-04, 07:35:06,VALID,917.934,VALID,0.0,VALID,96.539,VALID,293.31,VALID,21.036,VALID,58.0,VALID,0.914,
2017-09-04, 07:36:06,VALID,917.96,VALID,0.0,VALID,96.724,VALID,306.38,VALID,21.151,VALID,48.0,VALID,0.839,
2017-09-04, 07:37:06,VALID,917.985,VALID,0.0,VALID,96.067,VALID,315.763,VALID,21.147,VALID,44.0,VALID,0.43,
2017-09-04, 07:38:06,VALID,917.987,VALID,0.0,VALID,96.586,VALID,323.47,VALID,21.32,VALID,62.0,VALID,0.325,
2017-09-04, 07:39:06,VALID,917.984,VALID,0.0,VALID,96.198,VALID,323.292,VALID,21.327,VALID,65.0,VALID,0.605,
2017-09-04, 07:40:06,VALID,917.997,VALID,0.0,VALID,96.036,VALID,309.968,VALID,21.367,VALID,84.0,VALID,0.63,
2017-09-04, 07:41:06,VALID,918.003,VALID,0.0,VALID,95.23,VALID,315.294,VALID,21.323,VALID,103.0,VALID,0.848,
2017-09-04, 07:42:06,VALID,918.028,VALID,0.0,VALID,94.843,VALID,294.465,VALID,21.321,VALID,58.0,VALID,0.723,
2017-09-04, 07:43:06,VALID,918.034,VALID,0.0,VALID,95.083,VALID,285.188,VALID,21.377,VALID,58.0,VALID,0.418,
2017-09-04, 07:44:06,VALID,918.067,VALID,0.0,VALID,94.716,VALID,315.204,VALID,21.412,VALID,52.0,VALID,0.761,
2017-09-04, 07:45:06,VALID,918.09,VALID,0.0,VALID,95.269,VALID,324.503,VALID,21.504,VALID,72.0,VALID,1.007,
2017-09-04, 07:46:06,VALID,918.095,VALID,0.0,VALID,94.115,VALID,351.856,VALID,21.419,VALID,88.0,VALID,1.113,
2017-09-04, 07:47:06,VALID,918.128,VALID,0.0,VALID,93.488,VALID,375.21,VALID,21.322,VALID,94.0,VALID,0.989,
2017-09-04, 07:48:06,VALID,918.121,VALID,0.0,VALID,93.556,VALID,392.184,VALID,21.303,VALID,81.0,VALID,0.777,
2017-09-04, 07:49:06,VALID,918.135,VALID,0.0,VALID,95.54,VALID,392.552,VALID,21.501,VALID,117.0,VALID,0.536,
2017-09-04, 07:50:06,VALID,918.141,VALID,0.0,VALID,93.793,VALID,353.83,VALID,21.5,VALID,111.0,VALID,0.568,
2017-09-04, 07:51:06,VALID,918.142,VALID,0.0,VALID,93.338,VALID,255.667,VALID,21.538,VALID,145.0,VALID,0.166,
2017-09-04, 07:52:06,VALID,918.141,VALID,0.0,VALID,94.41,VALID,238.751,VALID,21.66,VALID,163.0,VALID,0.186,
2017-09-04, 07:53:06,VALID,918.156,VALID,0.0,VALID,94.16,VALID,261.048,VALID,21.717,VALID,169.0,VALID,0.557,
2017-09-04, 07:54:06,VALID,918.164,VALID,0.0,VALID,93.653,VALID,307.751,VALID,21.776,VALID,173.0,VALID,0.644,
2017-09-04, 07:55:06,VALID,918.168,VALID,0.0,VALID,94.04,VALID,367.841,VALID,21.877,VALID,169.0,VALID,0.67,
2017-09-04, 07:56:06,VALID,918.196,VALID,0.0,VALID,93.542,VALID,387.494,VALID,21.902,VALID,169.0,VALID,1.23,
2017-09-04, 07:57:06,VALID,918.207,VALID,0.0,VALID,93.646,VALID,403.606,VALID,21.875,VALID,186.0,VALID,0.62,
2017-09-04, 07:58:06,VALID,918.215,VALID,0.0,VALID,93.867,VALID,403.664,VALID,21.864,VALID,156.0,VALID,1.21,
2017-09-04, 07:59:06,VALID,918.216,VALID,0.0,VALID,92.875,VALID,357.417,VALID,21.705,VALID,155.0,VALID,1.132,
2017-09-04, 08:00:06,VALID,918.233,VALID,0.0,VALID,93.939,VALID,343.698,VALID,21.719,VALID,153.0,VALID,0.665,
2017-09-04, 08:01:06,VALID,918.239,VALID,0.0,VALID,93.701,VALID,399.727,VALID,21.75,VALID,166.0,VALID,0.903,
2017-09-04, 08:02:06,VALID,918.24,VALID,0.0,VALID,94.142,VALID,429.673,VALID,21.841,VALID,159.0,VALID,0.529,
2017-09-04, 08:03:06,VALID,918.27,VALID,0.0,VALID,94.395,VALID,431.634,VALID,21.988,VALID,183.0,VALID,0.174,
2017-09-04, 08:04:06,VALID,918.276,VALID,0.0,VALID,94.186,VALID,429.418,VALID,22.131,VALID,175.0,VALID,0.349,
2017-09-04, 08:05:06,VALID,918.295,VALID,0.0,VALID,91.286,VALID,438.107,VALID,22.214,VALID,197.0,VALID,0.513,
2017-09-04, 08:06:06,VALID,918.296,VALID,0.0,VALID,89.85,VALID,446.923,VALID,22.283,VALID,160.0,VALID,0.082,
2017-09-04, 08:07:06,VALID,918.315,VALID,0.0,VALID,91.883,VALID,457.772,VALID,22.447,VALID,139.0,VALID,0.087,
2017-09-04, 08:08:06,VALID,918.333,VALID,0.0,VALID,91.09,VALID,482.471,VALID,22.588,VALID,161.0,VALID,0.749,
2017-09-04, 08:09:06,VALID,918.342,VALID,0.0,VALID,90.493,VALID,498.185,VALID,22.674,VALID,167.0,VALID,0.644,
2017-09-04, 08:10:06,VALID,918.359,VALID,0.0,VALID,89.403,VALID,476.034,VALID,22.734,VALID,188.0,VALID,1.411,
2017-09-04, 08:11:06,VALID,918.368,VALID,0.0,VALID,89.002,VALID,479.564,VALID,22.707,VALID,181.0,VALID,1.135,
2017-09-04, 08:12:06,VALID,918.364,VALID,0.0,VALID,89.057,VALID,465.049,VALID,22.694,VALID,171.0,VALID,0.395,
2017-09-04, 08:13:06,VALID,918.372,VALID,0.0,VALID,90.317,VALID,433.633,VALID,22.765,VALID,179.0,VALID,0.703,
2017-09-04, 08:14:06,VALID,918.378,VALID,0.0,VALID,90.095,VALID,420.971,VALID,22.861,VALID,169.0,VALID,0.382,
2017-09-04, 08:15:06,VALID,918.369,VALID,0.0,VALID,88.662,VALID,410.693,VALID,22.872,VALID,163.0,VALID,0.709,
2017-09-04, 08:16:06,VALID,918.379,VALID,0.0,VALID,87.283,VALID,413.136,VALID,22.686,VALID,160.0,VALID,1.099,
2017-09-04, 08:17:06,VALID,918.379,VALID,0.0,VALID,88.456,VALID,413.239,VALID,22.554,VALID,186.0,VALID,0.726,
2017-09-04, 08:18:06,VALID,918.375,VALID,0.0,VALID,88.86,VALID,411.08,VALID,22.568,VALID,138.0,VALID,0.853,
2017-09-04, 08:19:06,VALID,918.367,VALID,0.0,VALID,89.888,VALID,405.703,VALID,22.543,VALID,103.0,VALID,0.74,
2017-09-04, 08:20:06,VALID,918.366,VALID,0.0,VALID,89.917,VALID,403.797,VALID,22.606,VALID,114.0,VALID,1.018,
2017-09-04, 08:21:06,VALID,918.381,VALID,0.0,VALID,88.914,VALID,400.722,VALID,22.525,VALID,118.0,VALID,0.964,
2017-09-04, 08:22:06,VALID,918.374,VALID,0.0,VALID,90.298,VALID,402.819,VALID,22.564,VALID,118.0,VALID,0.8,
2017-09-04, 08:23:06,VALID,918.382,VALID,0.0,VALID,88.391,VALID,394.189,VALID,22.52,VALID,162.0,VALID,0.813,
2017-09-04, 08:24:06,VALID,918.389,VALID,0.0,VALID,88.047,VALID,401.593,VALID,22.493,VALID,145.0,VALID,0.872,
2017-09-04, 08:25:06,VALID,918.394,VALID,0.0,VALID,88.14,VALID,405.513,VALID,22.417,VALID,114.0,VALID,0.392,
2017-09-04, 08:26:06,VALID,918.406,VALID,0.0,VALID,89.543,VALID,405.536,VALID,22.525,VALID,133.0,VALID,0.861,
2017-09-04, 08:27:06,VALID,918.414,VALID,0.0,VALID,89.209,VALID,401.358,VALID,22.657,VALID,157.0,VALID,0.654,
2017-09-04, 08:28:06,VALID,918.404,VALID,0.0,VALID,89.526,VALID,415.539,VALID,22.786,VALID,141.0,VALID,0.949,
2017-09-04, 08:29:06,VALID,918.406,VALID,0.0,VALID,87.479,VALID,414.346,VALID,22.818,VALID,103.0,VALID,0.83,
2017-09-04, 08:30:06,VALID,918.415,VALID,0.0,VALID,87.97,VALID,417.84,VALID,22.806,VALID,97.0,VALID,1.074,
2017-09-04, 08:31:06,VALID,918.441,VALID,0.0,VALID,88.511,VALID,417.186,VALID,22.847,VALID,107.0,VALID,1.619,
2017-09-04, 08:32:06,VALID,918.467,VALID,0.0,VALID,85.887,VALID,421.724,VALID,22.697,VALID,116.0,VALID,1.507,
2017-09-04, 08:33:06,VALID,918.478,VALID,0.0,VALID,88.549,VALID,419.123,VALID,22.712,VALID,102.0,VALID,1.487,
2017-09-04, 08:34:06,VALID,918.498,VALID,0.0,VALID,87.985,VALID,410.762,VALID,22.768,VALID,117.0,VALID,1.793,
2017-09-04, 08:35:06,VALID,918.515,VALID,0.0,VALID,87.203,VALID,429.571,VALID,22.748,VALID,101.0,VALID,2.085,
2017-09-04, 08:36:06,VALID,918.532,VALID,0.0,VALID,86.779,VALID,433.318,VALID,22.678,VALID,99.0,VALID,2.038,
2017-09-04, 08:37:06,VALID,918.524,VALID,0.0,VALID,86.598,VALID,430.754,VALID,22.612,VALID,95.0,VALID,1.409,
2017-09-04, 08:38:06,VALID,918.52,VALID,0.0,VALID,87.012,VALID,437.529,VALID,22.619,VALID,89.0,VALID,1.484,
2017-09-04, 08:39:06,VALID,918.51,VALID,0.0,VALID,88.039,VALID,435.496,VALID,22.776,VALID,100.0,VALID,1.486,
2017-09-04, 08:40:06,VALID,918.512,VALID,0.0,VALID,88.293,VALID,436.029,VALID,22.967,VALID,113.0,VALID,1.967,
2017-09-04, 08:41:06,VALID,918.498,VALID,0.0,VALID,85.903,VALID,438.611,VALID,23.061,VALID,100.0,VALID,2.082,
2017-09-04, 08:42:06,VALID,918.502,VALID,0.0,VALID,85.907,VALID,441.16,VALID,23.017,VALID,110.0,VALID,2.284,
2017-09-04, 08:43:06,VALID,918.494,VALID,0.0,VALID,85.167,VALID,442.479,VALID,22.998,VALID,103.0,VALID,2.781,
2017-09-04, 08:44:06,VALID,918.48,VALID,0.0,VALID,84.535,VALID,445.513,VALID,22.914,VALID,102.0,VALID,2.776,
2017-09-04, 08:45:06,VALID,918.47,VALID,0.0,VALID,86.289,VALID,453.526,VALID,22.905,VALID,98.0,VALID,2.477,
2017-09-04, 08:46:06,VALID,918.479,VALID,0.0,VALID,86.451,VALID,454.529,VALID,22.947,VALID,109.0,VALID,2.296,
2017-09-04, 08:47:06,VALID,918.471,VALID,0.0,VALID,87.223,VALID,456.72,VALID,23.044,VALID,102.0,VALID,1.676,
2017-09-04, 08:48:06,VALID,918.466,VALID,0.0,VALID,87.776,VALID,463.225,VALID,23.255,VALID,106.0,VALID,1.602,
2017-09-04, 08:49:06,VALID,918.466,VALID,0.0,VALID,85.232,VALID,465.146,VALID,23.481,VALID,128.0,VALID,1.736,
2017-09-04, 08:50:06,VALID,918.464,VALID,0.0,VALID,83.741,VALID,465.602,VALID,23.527,VALID,115.0,VALID,1.461,
2017-09-04, 08:51:06,VALID,918.469,VALID,0.0,VALID,84.513,VALID,469.194,VALID,23.518,VALID,99.0,VALID,1.62,
2017-09-04, 08:52:06,VALID,918.476,VALID,0.0,VALID,85.164,VALID,466.999,VALID,23.624,VALID,124.0,VALID,1.705,
2017-09-04, 08:53:06,VALID,918.494,VALID,0.0,VALID,83.706,VALID,472.69,VALID,23.714,VALID,123.0,VALID,1.652,
2017-09-04, 08:54:06,VALID,918.508,VALID,0.0,VALID,84.329,VALID,477.413,VALID,23.772,VALID,124.0,VALID,1.818,
2017-09-04, 08:55:06,VALID,918.521,VALID,0.0,VALID,84.046,VALID,479.128,VALID,23.761,VALID,113.0,VALID,1.685,
2017-09-04, 08:56:06,VALID,918.53,VALID,0.0,VALID,82.893,VALID,480.863,VALID,23.755,VALID,117.0,VALID,2.588,
2017-09-04, 08:57:06,VALID,918.535,VALID,0.0,VALID,82.491,VALID,484.205,VALID,23.594,VALID,101.0,VALID,2.55,
2017-09-04, 08:58:06,VALID,918.566,VALID,0.0,VALID,84.122,VALID,491.074,VALID,23.581,VALID,135.0,VALID,1.169,
2017-09-04, 08:59:06,VALID,918.6,VALID,0.0,VALID,82.744,VALID,497.226,VALID,23.77,VALID,108.0,VALID,1.661,
2017-09-04, 09:00:06,VALID,918.634,VALID,0.0,VALID,82.289,VALID,506.911,VALID,23.839,VALID,102.0,VALID,1.859,
2017-09-04, 09:01:06,VALID,918.66,VALID,0.0,VALID,83.663,VALID,503.099,VALID,23.943,VALID,97.0,VALID,1.401,
2017-09-04, 09:02:06,VALID,918.693,VALID,0.0,VALID,80.681,VALID,518.571,VALID,24.018,VALID,90.0,VALID,2.146,
2017-09-04, 09:03:06,VALID,918.706,VALID,0.0,VALID,80.955,VALID,528.845,VALID,23.879,VALID,102.0,VALID,1.2,
2017-09-04, 09:04:06,VALID,918.721,VALID,0.0,VALID,82.13,VALID,536.045,VALID,24.013,VALID,141.0,VALID,1.863,
2017-09-04, 09:05:06,VALID,918.731,VALID,0.0,VALID,80.825,VALID,547.254,VALID,24.123,VALID,141.0,VALID,2.449,
2017-09-04, 09:06:06,VALID,918.746,VALID,0.0,VALID,81.724,VALID,556.155,VALID,24.143,VALID,109.0,VALID,1.913,
2017-09-04, 09:07:06,VALID,918.75,VALID,0.0,VALID,81.731,VALID,527.243,VALID,24.352,VALID,109.0,VALID,1.465,
2017-09-04, 09:08:06,VALID,918.759,VALID,0.0,VALID,79.149,VALID,550.479,VALID,24.408,VALID,124.0,VALID,1.228,
2017-09-04, 09:09:06,VALID,918.758,VALID,0.0,VALID,80.099,VALID,559.586,VALID,24.545,VALID,127.0,VALID,1.041,
2017-09-04, 09:10:06,VALID,918.757,VALID,0.0,VALID,79.463,VALID,562.362,VALID,24.712,VALID,110.0,VALID,1.643,
2017-09-04, 09:11:06,VALID,918.751,VALID,0.0,VALID,79.931,VALID,515.289,VALID,24.851,VALID,78.0,VALID,1.72,
2017-09-04, 09:12:06,VALID,918.771,VALID,0.0,VALID,77.965,VALID,580.975,VALID,24.923,VALID,117.0,VALID,1.514,
2017-09-04, 09:13:06,VALID,918.774,VALID,0.0,VALID,76.882,VALID,580.531,VALID,24.947,VALID,108.0,VALID,1.785,
2017-09-04, 09:14:06,VALID,918.784,VALID,0.0,VALID,76.007,VALID,579.862,VALID,24.825,VALID,98.0,VALID,1.769,
2017-09-04, 09:15:06,VALID,918.777,VALID,0.0,VALID,76.787,VALID,393.819,VALID,24.62,VALID,93.0,VALID,2.189,
2017-09-04, 09:16:06,VALID,918.779,VALID,0.0,VALID,77.334,VALID,436.309,VALID,24.52,VALID,101.0,VALID,1.721,
2017-09-04, 09:17:06,VALID,918.763,VALID,0.0,VALID,76.543,VALID,596.131,VALID,24.483,VALID,117.0,VALID,0.85,
2017-09-04, 09:18:06,VALID,918.746,VALID,0.0,VALID,78.476,VALID,285.84,VALID,24.65,VALID,93.0,VALID,1.748,
2017-09-04, 09:19:06,VALID,918.748,VALID,0.0,VALID,78.771,VALID,304.39,VALID,24.72,VALID,114.0,VALID,1.677,
2017-09-04, 09:20:06,VALID,918.73,VALID,0.0,VALID,77.67,VALID,239.708,VALID,24.577,VALID,95.0,VALID,2.827,
2017-09-04, 09:21:06,VALID,918.74,VALID,0.0,VALID,77.855,VALID,332.37,VALID,24.365,VALID,120.0,VALID,2.173,
2017-09-04, 09:22:06,VALID,918.737,VALID,0.0,VALID,77.347,VALID,425.123,VALID,24.308,VALID,115.0,VALID,1.275,
2017-09-04, 09:23:06,VALID,918.737,VALID,0.0,VALID,79.497,VALID,253.199,VALID,24.409,VALID,138.0,VALID,1.433,
2017-09-04, 09:24:06,VALID,918.724,VALID,0.0,VALID,78.122,VALID,234.213,VALID,24.429,VALID,86.0,VALID,1.879,
2017-09-04, 09:25:06,VALID,918.709,VALID,0.0,VALID,79.403,VALID,457.794,VALID,24.272,VALID,94.0,VALID,2.435,
2017-09-04, 09:26:06,VALID,918.716,VALID,0.0,VALID,78.216,VALID,651.184,VALID,24.216,VALID,127.0,VALID,2.276,
2017-09-04, 09:27:06,VALID,918.705,VALID,0.0,VALID,78.732,VALID,527.046,VALID,24.388,VALID,128.0,VALID,2.119,
2017-09-04, 09:28:06,VALID,918.711,VALID,0.0,VALID,78.299,VALID,300.718,VALID,24.559,VALID,116.0,VALID,1.166,
2017-09-04, 09:29:06,VALID,918.702,VALID,0.0,VALID,79.085,VALID,266.275,VALID,24.663,VALID,101.0,VALID,1.75,
2017-09-04, 09:30:06,VALID,918.72,VALID,0.0,VALID,78.328,VALID,394.032,VALID,24.561,VALID,95.0,VALID,1.768,
2017-09-04, 09:31:06,VALID,918.729,VALID,0.0,VALID,78.74,VALID,407.527,VALID,24.416,VALID,99.0,VALID,1.492,
2017-09-04, 09:32:06,VALID,918.734,VALID,0.0,VALID,80.336,VALID,601.687,VALID,24.501,VALID,85.0,VALID,1.746,
2017-09-04, 09:33:06,VALID,918.735,VALID,0.0,VALID,79.841,VALID,404.434,VALID,24.515,VALID,58.0,VALID,1.825,
2017-09-04, 09:34:06,VALID,918.747,VALID,0.0,VALID,79.423,VALID,554.729,VALID,24.659,VALID,64.0,VALID,2.107,
2017-09-04, 09:35:06,VALID,918.744,VALID,0.0,VALID,76.497,VALID,617.301,VALID,24.618,VALID,67.0,VALID,2.181,
2017-09-04, 09:36:06,VALID,918.746,VALID,0.0,VALID,77.225,VALID,590.199,VALID,24.599,VALID,75.0,VALID,1.773,
2017-09-04, 09:37:06,VALID,918.734,VALID,0.0,VALID,76.665,VALID,301.773,VALID,24.485,VALID,69.0,VALID,1.861,
2017-09-04, 09:38:06,VALID,918.734,VALID,0.0,VALID,78.595,VALID,284.611,VALID,24.414,VALID,56.0,VALID,1.982,
2017-09-04, 09:39:06,VALID,918.748,VALID,0.0,VALID,77.993,VALID,276.917,VALID,24.39,VALID,74.0,VALID,2.555,
2017-09-04, 09:40:06,VALID,918.721,VALID,0.0,VALID,76.175,VALID,277.905,VALID,24.233,VALID,78.0,VALID,2.506,
2017-09-04, 09:41:06,VALID,918.726,VALID,0.0,VALID,78.194,VALID,285.705,VALID,24.11,VALID,66.0,VALID,2.052,
2017-09-04, 09:42:06,VALID,918.74,VALID,0.0,VALID,80.195,VALID,291.225,VALID,24.155,VALID,68.0,VALID,1.214,
2017-09-04, 09:43:06,VALID,918.737,VALID,0.0,VALID,78.441,VALID,305.075,VALID,24.184,VALID,65.0,VALID,2.13,
2017-09-04, 09:44:06,VALID,918.738,VALID,0.0,VALID,78.173,VALID,312.474,VALID,24.206,VALID,55.0,VALID,1.903,
2017-09-04, 09:45:06,VALID,918.732,VALID,0.0,VALID,77.842,VALID,304.97,VALID,24.253,VALID,52.0,VALID,1.874,
2017-09-04, 09:46:06,VALID,918.723,VALID,0.0,VALID,77.66,VALID,308.95,VALID,24.277,VALID,40.0,VALID,1.693,
2017-09-04, 09:47:06,VALID,918.712,VALID,0.0,VALID,78.306,VALID,325.215,VALID,24.362,VALID,37.0,VALID,1.02,
2017-09-04, 09:48:06,VALID,918.708,VALID,0.0,VALID,78.819,VALID,314.73,VALID,24.524,VALID,101.0,VALID,1.881,
2017-09-04, 09:49:06,VALID,918.699,VALID,0.0,VALID,77.682,VALID,319.675,VALID,24.463,VALID,100.0,VALID,1.92,
2017-09-04, 09:50:06,VALID,918.706,VALID,0.0,VALID,76.843,VALID,326.212,VALID,24.388,VALID,112.0,VALID,3.369,
2017-09-04, 09:51:06,VALID,918.695,VALID,0.0,VALID,74.977,VALID,313.119,VALID,24.316,VALID,115.0,VALID,2.601,
2017-09-04, 09:52:06,VALID,918.715,VALID,0.0,VALID,75.553,VALID,306.745,VALID,24.251,VALID,95.0,VALID,3.249,
2017-09-04, 09:53:06,VALID,918.72,VALID,0.0,VALID,75.287,VALID,311.727,VALID,24.162,VALID,110.0,VALID,2.012,
2017-09-04, 09:54:06,VALID,918.711,VALID,0.0,VALID,76.642,VALID,331.527,VALID,24.214,VALID,128.0,VALID,1.871,
2017-09-04, 09:55:06,VALID,918.707,VALID,0.0,VALID,77.469,VALID,391.45,VALID,24.386,VALID,122.0,VALID,1.238,
2017-09-04, 09:56:06,VALID,918.69,VALID,0.0,VALID,76.498,VALID,488.032,VALID,24.497,VALID,129.0,VALID,1.796,
2017-09-04, 09:57:06,VALID,918.666,VALID,0.0,VALID,77.686,VALID,729.631,VALID,24.597,VALID,81.0,VALID,2.562,
